Regional Weather Roundup
Issued by NWS Memphis, TN

Home | Current Version | Previous Version | Text Only | Print | Product List | Glossary On
Versions: 1 2 3 4 5 6 7 8 9 10 11 12 13 14 15 16 17 18 19 20 21 22 23 24 25 26 27 28 29 30 31 32 33 34 35 36 37 38 39 40 41 42 43 44 45 46 47 48 49 50
000
ASUS44 KMEG 021510
RWRMEG
MEMPHIS CWA HOURLY WEATHER ROUNDUP
NATIONAL WEATHER SERVICE MEMPHIS TN
1000 AM CDT WED SEP 02 2015

...WEST TENNESSEE...

CITY           SKY/WX    TMP DP  RH WIND       PRES   REMARKS
MEMPHIS INTL   MOSUNNY   85  69  58 VRB3      30.11S
NWS MEMPHIS      N/A     83 N/A N/A MISG        N/A
JACKSON        PTSUNNY   79  73  82 CALM      30.12F
LEXINGTON      SUNNY     82  72  69 CALM      30.12S
DYERSBURG      SUNNY     82  72  69 CALM      30.13S
UNION CITY     SUNNY     82  73  74 CALM      30.11S
PARIS          SUNNY     82  68  61 CALM      30.13F


...EASTERN ARKANSAS...

CITY           SKY/WX    TMP DP  RH WIND       PRES   REMARKS
JONESBORO      SUNNY     82  72  71 SE5       30.11S
WEST MEMPHIS   SUNNY     85  72  65 CALM      30.10S HX  91
BATESVILLE     SUNNY     82  72  69 CALM      30.12R
NEWPORT        SUNNY     84  72  67 VRB3      30.13R
WALNUT RIDGE   SUNNY     82  70  65 CALM      30.11S
BLYTHEVILLE    SUNNY     85  72  65 CALM      30.12S HX  91
SEARCY         SUNNY     84  73  69 NE3       30.12S HX  90
STUTTGART      CLOUDY    79  70  73 E3        30.10S
PINE BLUFF     SUNNY     82  72  71 CALM      30.10S
MONTICELLO     PTSUNNY   80  73  79 CALM      30.09S


...NORTH MISSISSIPPI...

CITY           SKY/WX    TMP DP  RH WIND       PRES   REMARKS
TUPELO         CLOUDY    80  71  74 SE3       30.11S
OXFORD         CLOUDY    81  72  74 NE6       30.13S
OLIVE BRANCH   MOSUNNY   84  73  70 CALM      30.11F HX  91
CLARKSDALE     MOSUNNY   79  75  89 CALM      30.11S
CORINTH        CLOUDY    77  73  88 CALM      30.12S
GREENWOOD      CLOUDY    79  70  74 VRB3      30.09S
COLUMBUS       CLOUDY    81  71  72 NW1       30.09R
STARKVILLE     FAIR      81  70  69 CALM      30.09F
GOLDEN TRIANGL SUNNY     82  72  69 CALM      30.09S


...SOUTHEAST MISSOURI...

CITY           SKY/WX    TMP DP  RH WIND       PRES   REMARKS
WEST PLAINS    SUNNY     81  67  62 S6        30.16R
POPLAR BLUFF   SUNNY     80  72  76 SE3       30.11F
CAPE GIRARDEAU SUNNY     83  72  69 CALM      30.12F


...NORTHWEST ALABAMA...

CITY           SKY/WX    TMP DP  RH WIND       PRES   REMARKS
MUSCLE SHOALS  CLOUDY    80  71  74 CALM      30.13S


...MIDDLE TENNESSEE...

CITY           SKY/WX    TMP DP  RH WIND       PRES   REMARKS
NASHVILLE      CLOUDY    83  68  60 CALM      30.14F
CLARKSVILLE    SUNNY     81  70  69 SE3       30.14S
COLUMBIA       SUNNY     82  75  78 CALM      30.12F


...WESTERN KENTUCKY...

CITY           SKY/WX    TMP DP  RH WIND       PRES   REMARKS
PADUCAH        SUNNY     84  70  62 VRB3      30.13R
FORT CAMPBELL  SUNNY     82  70  68 CALM      30.14S


...CENTRAL ARKANSAS...

CITY           SKY/WX    TMP DP  RH WIND       PRES   REMARKS
LITTLE ROCK    MOSUNNY   85  68  56 CALM      30.10S


SKY/WX REPORTED AS FAIR MEANS FEW OR NO CLOUDS BELOW
12 THOUSAND FEET.



USA.gov is the U.S. government's official web portal to all federal, state and local government web resources and services.